Location: Cercedilla
(40.7379°N, 4.0638°W)
Time: 19:49:30
(UTC+00:00)

Cosmos 1898 Rocket - Pass Details

Date: 07 June 2020
Orbit: 753 x 784 km, 74.0° (Epoch: 09 July)

Event Time Altitude Azimuth Distance (km) Brightness Sun altitude
Rises 01:08:22 0° 333° (NNW) 3,275 7.5 -25.3°
Reaches altitude 10° 01:10:53 10° 326° (NNW) 2,339 6.5 -25.2°
Enters shadow 01:15:27 40° 269° (W) 1,130 4.2 -25.0°
